World > North America > United States > Georgia

Hourly Amity, GA Regional Weather

Feedback E-mail the Weather

Quick WX

Amity, GA Weather Maps

°F °C°F °C
Amity Weather Map
UTC Time: 7/6/2022, 22:42
Your Time:

Amity, GA Regional Weather

Expires:202207062100;;802792
ASUS42 KCAE 062010
RWRCAE
REGIONAL WEATHER ROUNDUP
NATIONAL WEATHER SERVICE COLUMBIA SC
400 PM EDT WED JUL 06 2022

NOTE: "FAIR" INDICATES FEW OR NO CLOUDS BELOW 12,000 FEET WITH NO
SIGNIFICANT WEATHER AND/OR OBSTRUCTIONS TO VISIBILITY.

NOT ALL STATIONS ARE QUALITY CONTROLLED BY THE NATIONAL 
WEATHER SERVICE. USE DATA WITH CAUTION...ESPECIALLY 
DEWPOINT OBSERVATIONS.


SCZ001>059-115-116-135>137-GAZ040-063>065-077-062100-
...UPSTATE SOUTH CAROLINA...
  
CITY           SKY/WX    TMP DP  RH WIND       PRES   REMARKS
ANDERSON       MOSUNNY   96  71  44 W10       29.95F HX 103           
LIBERTY        PTSUNNY   91  78  65 W5        29.96S HX 104           
SPARTANBURG    MOSUNNY   93  72  49 S5        29.95F HX 100           
CLEMSON        MOSUNNY   93  74  53 W8        29.96F HX 103           
GREENVILLE     MOSUNNY   94  75  54 S10       29.97F HX 105           
GREENWOOD      MOSUNNY   92  74  55 S5        29.96F HX 101           
GREER          PTSUNNY   93  73  52 SW10      29.96F HX 102           
ROCK HILL      MOSUNNY   94  76  55 SW8       29.94F HX 106           
CHESTER        MOSUNNY   91  73  55 W3        29.95F HX 100           
LAURENS        MOSUNNY   93  72  49 SW8       29.95F HX 100           


...CENTRAL SOUTH CAROLINA...
  
CITY           SKY/WX    TMP DP  RH WIND       PRES   REMARKS
COLUMBIA APT   LGT RAIN  87  77  72 S18G29    29.93F HX  99           
COLUMBIA OWENS CLOUDY    87  77  72 S12G22    29.95R HX  99           
MCENTIRE ANGB  MOSUNNY   89  80  75 SW6G17    29.93F HX 107           
ORANGEBURG     MOSUNNY   93  77  59 SW6       29.96F HX 107           
SUMTER SHAW    PTSUNNY   94  77  57 SW13      29.93F HX 108           
NEWBERRY       SUNNY     93  72  49 SW9       29.97F HX 100           
BARNWELL       FAIR      95  77  55 SW5G12    29.95F HX 109           
MANNING        FAIR      91  72  52 SW7       29.95F HX  98           
CAMDEN         FAIR      95  77  55 S6        29.94F HX 109           
LANCASTER      MOSUNNY   93  75  55 CALM      29.94F HX 104           
WINNSBORO      MOSUNNY   91  73  55 SW5       29.95F HX 100           


...EASTERN AND COASTAL SOUTH CAROLINA...
  
CITY           SKY/WX    TMP DP  RH WIND       PRES   REMARKS
MYRTLE BEACH   SUNNY     88  80  77 S20       29.96F HX 104           
N MYRTLE BCH   SUNNY     87  79  76 S17G23    29.95F HX 101           
CONWAY         FAIR      93  75  55 W3        29.94F HX 104           
MARION         PTSUNNY   91  70  49 SW6       29.94F HX  97           
HARTSVILLE     FAIR      91  77  62 S8        29.93F HX 105           
FLORENCE       PTSUNNY   95  77  55 SW9       29.93F HX 109           
DARLINGTON     MOSUNNY   92  79  65 SW6       29.93F HX 108           
CHARLESTON APT MOSUNNY   91  77  63 S13       29.96F HX 104           
MOUNT PLEASANT FAIR      91  81  70 S10       29.96F HX 110           
WALTERBORO     SUNNY     93  75  55 S6        29.96F HX 104           
BEAUFORT       MOSUNNY   90  78  68 S12G20    29.96F HX 104           
HILTON HEAD    SUNNY     88  77  70 S16       29.99F HX 100           


...EASTERN GEORGIA...
  
CITY           SKY/WX    TMP DP  RH WIND       PRES   REMARKS
AUGUSTA BUSH F MOSUNNY   91  74  57 W10       29.94F HX 100           
AUGUSTA DANIEL MOSUNNY   90  73  57 SW9       29.97F HX  98           
THOMSON        MOSUNNY   95  74  51 S8        29.97F HX 106           
WASHINGTON     PTSUNNY   95  74  50 SW9       29.97F HX 105           
CLAXTON        FAIR      95  76  53 S9        29.97S HX 108           
STATESBORO     LGT RAIN  92  72  52 S6        29.97S HX  99           
SAVANNAH       MOSUNNY   91  72  53 CALM      29.96F HX  98           


...SOUTHERN NORTH CAROLINA...
  
CITY           SKY/WX    TMP DP  RH WIND       PRES   REMARKS
CHARLOTTE      MOSUNNY   97  71  42 S12       29.94F HX 104           
MONROE         PTSUNNY   92  73  53 VRB5      29.93F HX 100           
WADESBORO      SUNNY     93  74  53 SE3       29.92F HX 103           
ROCKINGHAM     SUNNY     93  75  56 W6        29.94F HX 104           
RUTHERFORDTON  PTSUNNY   88  72  58 SW3       29.98R THUNDER          
ASHEVILLE      PTSUNNY   87  70  56 NW5       30.05F                  

$$
  

SKY/WX - Weather  TMP - Temperature  DP - Dew Point  RH - Humidity
WIND - Wind Direction/Speed PRES - Barometric Pressure VSB - Visibility
WCI - Wind Chill Index E13G22 Wind - East Wind 13 mph/Gusts of 22 mph

Trending Headlines

Amity Radar Loop



Amity Quick Facts


National Two Day Weather Forecast


E-mail the Amity Weather Forecast

Voice your opinion or tell us about page issues...